Hourly Data Report for October 09, 2013

All times are specified in Local Standard Time (LST). Add 1 hour to adjust for Daylight Saving Time where and when it is observed.

ARVIAT A
NUNAVUT

61°05'38.000" N
94°04'18.000" W
10.40 m
2300427
71174
YEK

Download Data

Hourly Data (October 2013)
Hourly Data Report for October 9, 2013
Temp Definition
°C
Dew Point Temp Definition
°C
Rel Hum Definition
%
Wind Dir Definition
10's deg

Wind Spd Definition
km/h
Visibility Definition
km
Stn Press Definition
kPa
Hmdx Definition


Wind Chill Definition


Weather Definition


TIME
00:00 Legend Double Dagger -1.8 -4.8 80 1 15 16.1 101.80   -7 LegendNANA
01:00 Legend Double Dagger -1.8 -5.0 79 3 11 16.1 101.81   -6 LegendNANA
02:00 Legend Double Dagger -2.0 -4.8 81 36 11 16.1 101.83   -6 LegendNANA
03:00 Legend Double Dagger -2.0 -4.7 82 36 15 16.1 101.84   -7 LegendNANA
04:00 Legend Double Dagger -2.2 -5.2 80 1 15 16.1 101.84   -7 LegendNANA
05:00 Legend Double Dagger -2.4 -5.4 80 1 17 16.1 101.84   -8 LegendNANA
06:00 Legend Double Dagger -2.3 -5.1 81 2 15 16.1 101.85   -7 LegendNANA
07:00 Legend Double Dagger -2.2 -5.0 81 1 15 16.1 101.84   -7 LegendNANA
08:00 Legend Double Dagger -2.2 -5.2 80 2 11 16.1 101.84   -6 LegendNANA
09:00 Legend Double Dagger -2.0 -5.2 79 1 13 16.1 101.83   -6 LegendNANA
10:00 Legend Double Dagger -1.7 -4.9 79 3 11 16.1 101.85   -6 LegendNANA
11:00 Legend Double Dagger -1.5 -5.2 76 3 5 16.1 101.89   -3 LegendNANA
12:00 Legend Double Dagger -1.4 -4.8 78 2 9 16.1 101.87   -5 LegendNANA
13:00 Legend Double Dagger -1.3 -4.8 77 6 11 16.1 101.84   -5 LegendNANA
14:00 Legend Double Dagger -1.0 -4.5 77 5 13 16.1 101.81   -5 LegendNANA
15:00 Legend Double Dagger -0.8 -3.9 79 7 13 16.1 101.81   -5 LegendNANA
16:00 Legend Double Dagger -0.7 -3.6 81 9 15 16.1 101.77   -5 LegendNANA
17:00 Legend Double Dagger -0.4 -3.4 81 12 15 16.1 101.74   -5 LegendNANA
18:00 Legend Double Dagger -0.2 -3.3 79 12 15 16.1 101.77   -5 LegendNANA
19:00 Legend Double Dagger 0.1 -2.6 82 12 21 16.1 101.74     LegendNANA
20:00 Legend Double Dagger 0.6 -1.8 84 13 30 16.1 101.66     LegendNANA
21:00 Legend Double Dagger 1.2 -1.0 85 13 35 16.1 101.61     LegendNANA
22:00 Legend Double Dagger 1.4 0.5 94 14 30 16.1 101.61     LegendNANA
23:00 Legend Double Dagger 1.9 -1.4 79 17 32 16.1 101.57     LegendNANA

Notes on Data Quality.

Legend

  • E = Estimated
  • M = Missing
  • NA = Not Available
  • ‡ = Partner data that is not subject to review by the National Climate Archives
Date modified: